GPRO Georgia

Formula 1 online manager


    Season 29, Race 1: Buenos Aires GP (Argentina)

    Share
    avatar
    mrfantom
    Admin

    Posts : 211
    Join date : 01.09.11
    Age : 28
    Location : Tbilisi

    Season 29, Race 1: Buenos Aires GP (Argentina)

    Post by mrfantom on Sat Jan 14, 2012 11:50 pm




    ადგილმდებარეობა: არგენტინა
    თარიღი: 13 იანვარი, 2012

    ტრასის პარამეტრები:
    სარბოლო დისტანცია: 306.6 კმ
    წრეების რაოდენობა: 72
    წრის სიგრძე: 4.258 კმ
    საშუალო სიჩქარე: 185.31 კმ/სთ
    ჩატარებული რბოლები: 16
    მოსახვევების რაოდენობა: 16
    პიტზე შესვლა/გამოსვლის დრო: 19.5 წმ.

    სიმძლავრე: 12
    მართვადობა: 11
    აჩქარება: 9

    დამწოლი ძალა: მაღალი
    გასწრება: ძალიან რთული
    დაკიდების სიხისტე: ხისტი
    საწვავის ხარჯი: ძალიან დაბალი
    საბურავების ცვეთა: მაღალი
    მოჭიდების ხარისხი: ნორმალური

    პრაქტიკა/კვალიფიკაცია 1

    ტემპ: 27°C
    ტენიანობა: 65%
    კვალიფიკაცია 2/რბოლის სტარტი

    ტემპ: 30°C
    ტენიანობა: 65%
    სტარტი - 0ს30წთ
    ტემპ: 28°-31°
    ტენიანობა: 63%-73%
    წვიმის ალბათობა: 0%
    0ს30წთ - 1ს
    ტემპ: 26°-30°
    ტენიანობა: 64%-73%
    წვიმის ალბათობა: 0%
    1ს - 1ს30წთ
    ტემპ: 24°-27°
    ტენიანობა: 65%-74%
    წვიმის ალბათობა: 0%
    1ს30წთ - 2ს
    ტემპ: 23°-26°
    ტენიანობა: 63%-74%
    წვიმის ალბათობა: 0%
    avatar
    mrfantom
    Admin

    Posts : 211
    Join date : 01.09.11
    Age : 28
    Location : Tbilisi

    Re: Season 29, Race 1: Buenos Aires GP (Argentina)

    Post by mrfantom on Sat Jan 14, 2012 11:52 pm

    Lap informationLap Lap time Pos Tyres Weather Temp Hum Events
    0 - 13 Hard Very Cloudy 30° 65% -
    1 1:42.006 14 Hard Very Cloudy 30° 65% -
    2 1:33.827 14 Hard Very Cloudy 30° 65% -
    3 1:33.502 14 Hard Very Cloudy 30° 65% -
    4 1:33.528 14 Hard Very Cloudy 30° 65% -
    5 1:33.470 14 Hard Very Cloudy 30° 65% -
    6 1:33.738 14 Hard Very Cloudy 30° 64% -
    7 1:33.573 14 Hard Very Cloudy 30° 63% -
    8 1:33.604 14 Hard Very Cloudy 30° 63% -
    9 1:33.169 14 Hard Very Cloudy 30° 63% -
    10 1:33.195 14 Hard Very Cloudy 30° 63% -
    11 1:33.436 14 Hard Very Cloudy 30° 63% -
    12 1:33.327 14 Hard Very Cloudy 30° 63% -
    13 1:33.251 14 Hard Very Cloudy 30° 63% -
    14 1:32.935 14 Hard Cloudy 30° 63% -
    15 1:32.879 12 Hard Cloudy 30° 63% -
    16 1:32.906 12 Hard Cloudy 30° 63% -
    17 1:33.060 11 Hard Cloudy 30° 63% -
    18 1:32.921 10 Hard Cloudy 30° 63% -
    19 1:32.881 8 Hard Cloudy 30° 63% -
    20 1:32.719 8 Hard Cloudy 30° 63% -
    21 1:32.660 8 Hard Cloudy 30° 63% -
    22 1:32.612 8 Hard Cloudy 30° 63% -
    23 1:32.468 8 Hard Cloudy 30° 63% -
    24 1:32.489 7 Hard Cloudy 30° 64% -
    25 1:32.341 3 Hard Cloudy 30° 64% -
    26 1:32.451 2 Hard Cloudy 30° 64% -
    27 1:32.101 2 Hard Cloudy 30° 64% -
    28 1:32.230 2 Hard Very Cloudy 30° 64% -
    29 1:32.381 2 Hard Very Cloudy 29° 64% -
    30 1:32.782 2 Hard Very Cloudy 28° 64% -
    31 1:34.261 2 Hard Very Cloudy 28° 64% -
    32 1:34.788 2 Hard Very Cloudy 27° 64% -
    33 1:33.042 1 Hard Very Cloudy 27° 64% -
    34 1:33.823 1 Hard Very Cloudy 26° 64% -
    35 1:34.343 1 Hard Very Cloudy 26° 64% -
    36 1:34.730 2 Hard Very Cloudy 26° 64% -
    37 1:45.380 2 Hard Very Cloudy 26° 64% Pit
    38 2:18.756 13 Hard Very Cloudy 26° 64% -
    39 1:34.293 12 Hard Very Cloudy 26° 64% -
    40 1:34.166 12 Hard Very Cloudy 26° 64% -
    41 1:34.144 12 Hard Very Cloudy 26° 64% -
    42 1:34.058 12 Hard Very Cloudy 25° 64% -
    43 1:33.933 12 Hard Very Cloudy 25° 64% -
    44 1:34.254 12 Hard Very Cloudy 24° 64% -
    45 1:34.202 12 Hard Very Cloudy 24° 65% -
    46 1:33.900 12 Hard Very Cloudy 24° 65% -
    47 1:33.883 12 Hard Very Cloudy 24° 65% -
    48 1:33.942 12 Hard Very Cloudy 24° 65% -
    49 1:33.827 10 Hard Very Cloudy 25° 65% -
    50 1:33.690 10 Hard Very Cloudy 26° 65% -
    51 1:33.103 9 Hard Very Cloudy 27° 65% -
    52 1:33.323 9 Hard Very Cloudy 27° 65% -
    53 1:33.266 9 Hard Very Cloudy 27° 65% -
    54 1:32.929 9 Hard Very Cloudy 27° 65% -
    55 1:33.925 8 Hard Very Cloudy 27° 65% -
    56 1:33.183 7 Hard Very Cloudy 27° 65% -
    57 1:37.190 9 Hard Very Cloudy 27° 65% Driver mistake
    58 1:32.865 8 Hard Very Cloudy 27° 65% -
    59 1:32.880 8 Hard Very Cloudy 27° 65% -
    60 1:32.730 8 Hard Very Cloudy 27° 65% -
    61 1:32.690 7 Hard Very Cloudy 27° 65% -
    62 1:32.568 7 Hard Very Cloudy 27° 65% -
    63 1:33.576 7 Hard Very Cloudy 26° 65% -
    64 1:35.032 6 Hard Very Cloudy 25° 65% -
    65 1:33.045 5 Hard Very Cloudy 25° 65% -
    66 1:32.857 5 Hard Very Cloudy 24° 65% -
    67 1:32.722 5 Hard Very Cloudy 23° 65% -
    68 1:32.764 5 Hard Very Cloudy 23° 65% -
    69 1:32.803 5 Hard Very Cloudy 23° 65% -
    70 1:33.137 4 Hard Very Cloudy 23° 65% -
    71 1:33.522 4 Hard Very Cloudy 23° 65% -
    72 1:33.934 4 Hard Very Cloudy 23° 65% -


    Race settings and strategyRisks used
    Overtake Defend Clear Malfunct
    5 10 10 5

    Setup used
    FWing RWing Eng Bra Gear Susp
    900 999 500 400 600 700



    Start fuel: 117 litersPit Pitstop reason Tyres condition
    Fuel left Refilled to Pit time
    Stop 1
    (Lap 37) The tyres could not do any more laps 2% 3% 118 liters 33.976s



    Tyres condition after finish: 10%

    Fuel left in the car after finish: 12 liters
    avatar
    Matador

    Posts : 216
    Join date : 02.09.11
    Age : 35

    Re: Season 29, Race 1: Buenos Aires GP (Argentina)

    Post by Matador on Mon Jan 16, 2012 3:56 pm

    ttings and strategyRisks used
    Overtake Defend Clear Malfunct
    5 15 25 0

    Setup used
    FWing RWing Eng Bra Gear Susp
    995 985 700 300 525 850



    Start fuel: 97 litersPit Pitstop reason Tyres condition
    Fuel left Refilled to Pit time
    Stop 1
    (Lap 38) No more fuel was left 3% 0% 97 liters 31.253s



    Tyres condition after finish: 16%

    Fuel left in the car after finish: 10 liters

    Lap informationLap Lap time Pos Tyres Weather Temp Hum Events
    0 - 13 Hard Very Cloudy 30° 65% -
    1 1:40.040 15 Hard Very Cloudy 30° 65% -
    2 1:30.605 15 Hard Very Cloudy 30° 65% -
    3 1:30.430 15 Hard Very Cloudy 30° 65% -
    4 1:30.461 15 Hard Very Cloudy 30° 65% -
    5 1:30.491 15 Hard Very Cloudy 30° 65% -
    6 1:30.467 14 Hard Very Cloudy 30° 64% -
    7 1:30.412 14 Hard Very Cloudy 30° 63% -
    8 1:30.318 14 Hard Very Cloudy 30° 63% -
    9 1:30.391 14 Hard Very Cloudy 30° 63% -
    10 1:30.193 14 Hard Very Cloudy 30° 63% -
    11 1:30.273 14 Hard Very Cloudy 30° 63% -
    12 1:30.138 14 Hard Very Cloudy 30° 63% -
    13 1:36.238 17 Hard Very Cloudy 30° 63% Driver mistake
    14 1:30.263 17 Hard Cloudy 30° 63% -
    15 1:30.209 17 Hard Cloudy 30° 63% -
    16 1:30.116 17 Hard Cloudy 30° 63% -
    17 1:30.061 17 Hard Cloudy 30° 63% -
    18 1:30.056 16 Hard Cloudy 30° 63% -
    19 1:30.059 16 Hard Cloudy 30° 63% -
    20 1:31.059 16 Hard Cloudy 30° 63% -
    21 1:29.722 16 Hard Cloudy 30° 63% -
    22 1:29.765 15 Hard Cloudy 30° 63% -
    23 1:29.837 12 Hard Cloudy 30° 63% -
    24 1:29.845 11 Hard Cloudy 30° 64% -
    25 1:29.776 9 Hard Cloudy 30° 64% -
    26 1:29.712 7 Hard Cloudy 30° 64% -
    27 1:29.661 3 Hard Cloudy 30° 64% -
    28 1:29.650 3 Hard Very Cloudy 30° 64% -
    29 1:29.556 3 Hard Very Cloudy 29° 64% -
    30 1:29.734 3 Hard Very Cloudy 28° 64% -
    31 1:29.769 3 Hard Very Cloudy 28° 64% -
    32 1:30.051 3 Hard Very Cloudy 27° 64% -
    33 1:30.422 3 Hard Very Cloudy 27° 64% -
    34 1:30.900 4 Hard Very Cloudy 26° 64% -
    35 1:31.197 3 Hard Very Cloudy 26° 64% -
    36 1:31.755 2 Hard Very Cloudy 26° 64% -
    37 1:32.359 2 Hard Very Cloudy 26° 64% -
    38 1:42.690 7 Hard Very Cloudy 26° 64% Pit
    39 2:12.745 17 Hard Very Cloudy 26° 64% -
    40 1:31.209 16 Hard Very Cloudy 26° 64% -
    41 1:31.024 16 Hard Very Cloudy 26° 64% -
    42 1:31.094 16 Hard Very Cloudy 25° 64% -
    43 1:31.013 16 Hard Very Cloudy 25° 64% -
    44 1:31.106 16 Hard Very Cloudy 24° 64% -
    45 1:31.105 16 Hard Very Cloudy 24° 65% -
    46 1:31.046 15 Hard Very Cloudy 24° 65% -
    47 1:31.038 14 Hard Very Cloudy 24° 65% -
    48 1:30.957 13 Hard Very Cloudy 24° 65% -
    49 1:30.760 12 Hard Very Cloudy 25° 65% -
    50 1:30.676 12 Hard Very Cloudy 26° 65% -
    51 1:30.478 12 Hard Very Cloudy 27° 65% -
    52 1:30.424 11 Hard Very Cloudy 27° 65% -
    53 1:30.439 10 Hard Very Cloudy 27° 65% -
    54 1:30.341 10 Hard Very Cloudy 27° 65% -
    55 1:30.331 9 Hard Very Cloudy 27° 65% -
    56 1:30.184 9 Hard Very Cloudy 27° 65% -
    57 1:30.131 9 Hard Very Cloudy 27° 65% -
    58 1:30.114 9 Hard Very Cloudy 27° 65% -
    59 1:30.030 9 Hard Very Cloudy 27° 65% -
    60 1:29.993 9 Hard Very Cloudy 27° 65% -
    61 1:29.933 9 Hard Very Cloudy 27° 65% -
    62 1:29.853 9 Hard Very Cloudy 27° 65% -
    63 1:29.938 9 Hard Very Cloudy 26° 65% -
    64 1:29.977 9 Hard Very Cloudy 25° 65% -
    65 1:29.928 9 Hard Very Cloudy 25° 65% -
    66 1:30.036 9 Hard Very Cloudy 24° 65% -
    67 1:30.048 10 Hard Very Cloudy 23° 65% -
    68 1:29.991 10 Hard Very Cloudy 23° 65% -
    69 1:29.881 10 Hard Very Cloudy 23° 65% -
    70 1:29.926 9 Hard Very Cloudy 23° 65% -
    71 1:29.961 8 Hard Very Cloudy 23° 65% -
    72 1:30.278 9 Hard Very Cloudy 23° 65% -
    avatar
    macbook

    Posts : 90
    Join date : 02.09.11

    Re: Season 29, Race 1: Buenos Aires GP (Argentina)

    Post by macbook on Mon Jan 23, 2012 2:37 am

    Practice laps data
    Lap Lap time Driver mistake Net time Settings
    FWing RWing Engine Brakes Gear Susp Tyres Comm
    1 1:34.128s 0.052s 1:34.076s 999 999 500 400 500 700 Extra Soft
    2 1:34.071s 0.039s 1:34.032s 999 999 500 400 700 800 Extra Soft
    3 1:34.074s 0.063s 1:34.011s 999 999 500 400 620 800 Extra Soft
    4 1:35.097s 0.107s 1:34.990s 999 999 500 400 620 800 Hard
    5 1:35.080s 0.092s 1:34.988s 950 950 500 400 620 800 Hard
    6 1:35.065s 0.009s 1:35.056s 900 999 500 400 620 800 Hard
    7 1:35.098s 0.115s 1:34.983s 999 900 500 400 620 800 Hard
    8 1:34.988s 0.015s 1:34.973s 999 925 500 400 620 800 Hard
    Practice lap 8 comments from your driver:

    I am satisfied with the setup of the car


    Race information
    Lap times
    Qualification 1 Qualification 2
    1:34.895s 1:38.241s

    Setups used
    Session FWing RWing Eng Bra Gear Susp Tyres
    Q1 999 925 500 400 620 800 Hard
    Q2 999 925 500 400 620 800 Hard
    Race 999 925 500 400 620 800 -

    Risks used
    Starting risk
    Overtake where possible
    Overtake Defend Clear Malfunct
    0 0 0 0

    Driver attributes
    Driver name OA Con Tal Exp Age Sta Mot TeI Agr Cha Wei Rep
    Radu Hora 91 250 71 60 22 27 116 129 18 19 82 23

    Positions
    Start Finish
    9 2

    Overall car character
    Power Handling Acceleration
    13 13 13

    Sessions weather
    Practice / Qualify 1 Qualify 2 / Race start

    Temp: 27°C
    Humidity: 65%
    Temp: 30°C
    Humidity: 65%
    Race forecast
    Start - 0h30m 0h30m - 1h
    Temp: 28° - 31°
    Humidity: 63% - 73%
    Rain probability: 0% Temp: 26° - 30°
    Humidity: 64% - 73%
    Rain probability: 0%
    1h - 1h30m 1h30m - 2h
    Temp: 24° - 27°
    Humidity: 65% - 74%
    Rain probability: 0% Temp: 23° - 26°
    Humidity: 63% - 74%
    Rain probability: 0%


    Start fuel: 110 liters

    Pit Pitstop reason Tyres condition Fuel left Refilled to Pit time
    Stop 1:
    (Lap 36) No more fuel was left 9% 1% 115 liters 27.664s

    Tyres condition after finish: 12%

    Fuel left in the car after finish: 7 liters

    Show financial analysis as:
    Table
    Graph
    Financial analysis of the last race
    Earnings
    Driver race position (2): $7.800.000
    Driver qualifying position (9): $320.000
    Sponsor money: $1.000.000
    Costs
    Driver salary: $-750.000
    Staff salary: $-350.000
    Facility costs: $-200.000
    Tyres contract (Pipirelli): $-250.000

    Total: $7.570.000

    Current balance: $36.905.000
    Car wear & lap information
    Car parts level
    Cha Eng FWing RWing Underb Sidep Cool Gear Bra Susp Elec
    1 1 1 1 1 1 1 1 1 1 1
    Car parts wear (at the start)
    0% 0% 0% 0% 0% 0% 0% 0% 0% 0% 0%
    Car parts wear (at the finish)
    19% 32% 15% 19% 14% 12% 16% 34% 42% 30% 13%
    Lap Lap time Pos Tyres Weather Temp Hum Events
    0 - 9 Hard Very Cloudy 30° 65% -
    1 1:40.521 9 Hard Very Cloudy 30° 65% -
    2 1:33.943 9 Hard Very Cloudy 30° 65% -
    3 1:33.889 9 Hard Very Cloudy 30° 65% -
    4 1:33.855 9 Hard Very Cloudy 30° 65% -
    5 1:33.772 9 Hard Very Cloudy 30° 65% -
    6 1:33.609 9 Hard Very Cloudy 30° 64% -
    7 1:33.643 9 Hard Very Cloudy 30° 63% -
    8 1:33.500 9 Hard Very Cloudy 30° 63% -
    9 1:33.552 9 Hard Very Cloudy 30° 63% -
    10 1:33.374 9 Hard Very Cloudy 30° 63% -
    11 1:33.343 9 Hard Very Cloudy 30° 63% -
    12 1:33.249 9 Hard Very Cloudy 30° 63% -
    13 1:33.190 8 Hard Very Cloudy 30° 63% -
    14 1:33.212 7 Hard Cloudy 30° 63% -
    15 1:33.181 7 Hard Cloudy 30° 63% -
    16 1:32.967 7 Hard Cloudy 30° 63% -
    17 1:33.059 7 Hard Cloudy 30° 63% -
    18 1:32.826 6 Hard Cloudy 30° 63% -
    19 1:32.814 6 Hard Cloudy 30° 63% -
    20 1:32.766 6 Hard Cloudy 30° 63% -
    21 1:32.653 6 Hard Cloudy 30° 63% -
    22 1:32.569 6 Hard Cloudy 30° 63% -
    23 1:32.642 4 Hard Cloudy 30° 63% -
    24 1:32.559 4 Hard Cloudy 30° 64% -
    25 1:32.433 4 Hard Cloudy 30° 64% -
    26 1:32.399 2 Hard Cloudy 30° 64% -
    27 1:32.282 2 Hard Cloudy 30° 64% -
    28 1:32.224 2 Hard Very Cloudy 30° 64% -
    29 1:32.241 2 Hard Very Cloudy 29° 64% -
    30 1:32.372 2 Hard Very Cloudy 28° 64% -
    31 1:32.313 2 Hard Very Cloudy 28° 64% -
    32 1:32.354 2 Hard Very Cloudy 27° 64% -
    33 1:32.787 2 Hard Very Cloudy 27° 64% -
    34 1:33.135 2 Hard Very Cloudy 26° 64% -
    35 1:33.506 2 Hard Very Cloudy 26° 64% -
    36 1:43.672 2 Hard Very Cloudy 26° 64% Pit
    37 2:12.566 5 Hard Very Cloudy 26° 64% -
    38 1:34.612 5 Hard Very Cloudy 26° 64% -
    39 1:34.422 5 Hard Very Cloudy 26° 64% -
    40 1:34.364 5 Hard Very Cloudy 26° 64% -
    41 1:34.298 5 Hard Very Cloudy 26° 64% -
    42 1:34.309 5 Hard Very Cloudy 25° 64% -
    43 1:34.136 4 Hard Very Cloudy 25° 64% -
    44 1:34.334 4 Hard Very Cloudy 24° 64% -
    45 1:34.242 3 Hard Very Cloudy 24° 65% -
    46 1:34.156 3 Hard Very Cloudy 24° 65% -
    47 1:34.139 3 Hard Very Cloudy 24° 65% -
    48 1:33.947 3 Hard Very Cloudy 24° 65% -
    49 1:33.902 3 Hard Very Cloudy 25° 65% -
    50 1:33.586 3 Hard Very Cloudy 26° 65% -
    51 1:33.497 2 Hard Very Cloudy 27° 65% -
    52 1:33.532 2 Hard Very Cloudy 27° 65% -
    53 1:33.350 2 Hard Very Cloudy 27° 65% -
    54 1:33.369 2 Hard Very Cloudy 27° 65% -
    55 1:33.218 2 Hard Very Cloudy 27° 65% -
    56 1:33.081 2 Hard Very Cloudy 27° 65% -
    57 1:33.068 2 Hard Very Cloudy 27° 65% -
    58 1:33.107 2 Hard Very Cloudy 27° 65% -
    59 1:33.036 2 Hard Very Cloudy 27° 65% -
    60 1:33.003 2 Hard Very Cloudy 27° 65% -
    61 1:32.818 2 Hard Very Cloudy 27° 65% -
    62 1:32.744 2 Hard Very Cloudy 27° 65% -
    63 1:32.775 2 Hard Very Cloudy 26° 65% -
    64 1:32.732 2 Hard Very Cloudy 25° 65% -
    65 1:32.693 2 Hard Very Cloudy 25° 65% -
    66 1:32.699 2 Hard Very Cloudy 24° 65% -
    67 1:32.735 2 Hard Very Cloudy 23° 65% -
    68 1:32.779 2 Hard Very Cloudy 23° 65% -
    69 1:32.677 2 Hard Very Cloudy 23° 65% -
    70 1:32.895 2 Hard Very Cloudy 23° 65% -
    71 1:33.258 2 Hard Very Cloudy 23° 65% -
    72 1:33.594 2 Hard Very Cloudy 23° 65%

    Sponsored content

    Re: Season 29, Race 1: Buenos Aires GP (Argentina)

    Post by Sponsored content


      Current date/time is Fri Aug 18, 2017 1:49 pm